Lid_Strength_Index
11 11 12 11 10 10 11 13 13 11 9 11 11 11 10 8 7 8 7 7 6 5 4 3 2 2 2 1 1 1 2 1 1 1 1 1 1 1 1 1 -0 -0 -0 1
12 12 11 10 8 10 11 12 13 10 9 11 12 12 9 8 8 7 7 7 6 5 5 4 3 2 2 2 2 2 1 1 1 1 1 1 1 1 0 0 -1 -1 -0 0
13 11 10 11 10 11 12 13 12 13 11 10 11 13 12 9 8 7 6 6 6 6 5 5 4 3 2 2 2 2 1 1 1 1 1 1 0 0 1 1 0 -0 -0 -1
12 10 11 12 12 10 13 9 10 12 14 17 11 18 13 11 10 8 7 7 6 5 5 4 4 3 3 2 2 2 1 1 1 1 1 1 2 2 1 1 0 0 -0 -0
12 11 12 12 11 8 10 8 10 11 14 14 14 17 14 11 12 10 8 7 6 5 5 5 4 3 2 2 2 2 1 1 1 1 1 2 2 1 1 1 1 1 0 -1
11 10 10 10 9 7 8 10 11 12 14 18 15 15 15 13 12 9 8 7 6 5 5 4 3 3 3 2 2 1 1 1 1 1 2 2 2 2 1 1 1 1 1 0
12 12 11 10 12 11 10 13 18 20 19 19 16 16 14 10 9 8 8 7 6 5 5 5 4 4 3 3 2 2 2 2 1 1 1 1 1 2 2 1 1 1 1 1
14 15 12 10 11 12 11 13 16 19 20 17 14 17 13 8 8 7 7 6 6 6 5 5 4 4 3 3 2 2 2 2 1 1 1 1 1 2 2 2 1 1 1 0
15 14 10 10 10 10 12 14 13 14 16 16 15 12 9 9 9 8 7 7 7 6 5 5 4 4 3 3 2 2 2 2 2 1 1 1 1 1 2 1 1 1 0 0
12 15 12 11 10 10 11 10 13 14 18 19 17 16 15 11 10 9 9 8 7 6 5 5 4 4 3 3 2 2 2 2 1 1 1 1 1 1 1 2 2 1 0 -0
13 14 13 12 13 13 12 13 14 13 15 17 18 15 10 10 9 9 8 7 7 6 5 5 4 3 3 2 2 2 2 2 2 1 1 1 1 1 1 1 1 0 -0 0
11 14 15 13 12 11 13 13 14 15 16 16 15 14 8 8 8 7 7 7 6 5 5 4 4 4 3 3 3 2 2 2 2 1 1 1 1 1 1 1 1 0 0 0
12 14 16 14 14 12 13 13 15 14 13 16 16 14 8 8 8 7 7 7 6 6 5 5 4 4 4 3 3 2 2 2 1 1 1 1 1 1 1 1 1 0 0 0
8 15 14 14 14 13 12 11 12 13 14 15 14 12 10 9 9 8 7 6 6 6 5 5 5 4 4 3 3 3 2 2 1 1 2 2 2 1 1 1 1 1 0 1
12 14 14 13 12 10 10 10 12 12 13 13 12 12 10 9 8 8 7 6 6 6 6 5 5 4 4 3 3 2 2 2 1 2 2 2 1 1 1 1 1 0 0 0
12 13 14 12 12 10 11 10 11 11 11 11 11 11 8 7 7 7 7 7 7 6 6 5 4 4 4 3 3 3 2 2 2 2 2 1 1 1 1 1 1 1 1 1
12 12 13 14 11 11 14 11 10 10 11 10 12 9 8 9 8 8 7 7 7 6 5 5 5 4 4 3 3 3 2 2 2 2 2 2 2 2 2 1 1 1 1 2
11 11 12 14 12 18 11 8 9 9 9 9 9 8 8 8 7 6 6 6 6 6 5 5 4 4 3 3 3 3 3 3 3 3 2 3 2 2 2 1 1 1 1 2
10 11 13 14 15 12 10 9 9 10 10 8 8 7 7 7 7 7 5 5 5 5 4 4 3 3 3 3 3 3 3 3 3 3 3 2 2 2 2 2 2 1 1 1
10 11 11 14 16 16 11 8 7 8 12 8 7 7 8 7 11 9 5 5 4 4 4 4 3 3 3 3 2 3 3 3 3 2 2 1 2 2 2 2 3 2 1 1
13 13 13 13 14 12 9 7 7 13 11 8 7 7 7 8 7 6 5 5 4 4 4 3 3 3 3 2 2 3 3 3 2 1 1 1 1 2 2 2 3 2 2 2
13 14 14 13 14 16 7 7 10 9 8 6 6 6 6 6 6 5 5 5 4 4 4 4 4 4 4 3 3 3 3 2 2 2 2 2 1 1 1 1 1 2 2 2
14 12 13 12 11 8 7 7 7 6 8 6 6 6 5 6 6 5 5 5 4 5 5 5 5 4 4 3 3 3 3 3 3 2 2 2 1 1 1 2 2 2 2 2
10 9 12 11 10 9 7 6 6 6 6 5 5 5 5 6 5 6 6 5 5 6 6 6 4 3 3 2 3 2 2 1 2 3 3 2 2 2 1 2 3 2 2 3
9 9 10 11 9 8 7 6 6 6 5 5 4 4 5 5 6 5 7 7 7 7 6 5 4 3 3 2 2 2 1 2 3 3 2 2 2 2 2 5 7 6 5 6
8 9 11 12 8 8 8 6 5 6 6 5 5 4 4 4 5 6 7 7 6 6 6 5 3 3 3 2 2 2 3 2 3 2 2 2 2 2 2 4 6 10 11 11